Weather History for KBGR - January, 2013

Change the Weather History Date:

Friday, January 11, 2013

  Actual Average Record
Temperature  
Mean Temperature 24 °F 17 °F  
Max Temperature 34 °F 27 °F 52 °F (1983)
Min Temperature 14 °F 7 °F -25 °F (1945)
Degree Days  
Heating Degree Days 41 48  
Month to date heating degree days 541 520  
Since 1 July heating degree days 3335 3441  
Cooling Degree Days 0 0  
Month to date cooling degree days 0 0  
Year to date cooling degree days 0 0  
Moisture  
Dew Point 16 °F    
Average Humidity 67    
Maximum Humidity 88    
Minimum Humidity 45    
Precipitation  
Precipitation T in 0.09 in 1.16 in (1983)
Month to date precipitation 0.06 1.04  
Year to date precipitation 0.06 1.04  
Snow  
Snow T in 0.60 in 16.70 in (1987)
Month to date snowfall 1.0 6.9  
Since 1 July snowfall 22.6 23.7  
Snow Depth 11.00 in    
Sea Level Pressure  
Sea Level Pressure 30.41 in    
Wind  
Wind Speed 4 mph (North)    
Max Wind Speed 12 mph    
Max Gust Speed 15 mph    
Visibility 10 miles    
Events Rain , Snow    
T = Trace of Precipitation, MM = Missing Value Source: NWS Daily Summary

Daily Weather History Graph

Daily Weather History Graph

Search for Another Location

Airport or City:

Trip Planner

Search our weather history database for the weather conditions in past years. The results will help you decide how hot, cold, wet, or windy it might be!

Date:

Astronomy

Jan. 11, 2013 Rise Set
Actual Time 7:11 AM EST 4:15 PM EST
Civil Twilight 6:38 AM EST 4:48 PM EST
Nautical Twilight 6:01 AM EST 5:25 PM EST
Astronomical Twilight 5:26 AM EST 6:00 PM EST
Moon 6:39 AM EST (1/11) 4:32 PM EST (1/11)
Length of Visible Light 10h 10m
Length of Day
9h 04m
Waning Crescent, 0% of the Moon is Illuminated
Jan 11
Waning Crescent
Jan 11
New
Jan 18
First Quarter
Jan 26
Full
Feb 3
Last Quarter

Hourly Weather History & Observations

Time (EST) Temp. Windchill Dew Point Humidity Pressure Visibility Wind Dir Wind Speed Gust Speed Precip Events Conditions
12:53 AM 24.1 °F 19.7 °F 15.1 °F 69% 30.50 in 10.0 mi West 3.5 mph - N/A   Clear
1:53 AM 16.0 °F 8.8 °F 12.0 °F 84% 30.51 in 10.0 mi WNW 4.6 mph - N/A   Partly Cloudy
2:53 AM 19.0 °F 10.0 °F 12.9 °F 77% 30.50 in 10.0 mi NNW 6.9 mph - N/A   Partly Cloudy
3:53 AM 19.9 °F 10.1 °F 12.9 °F 74% 30.49 in 10.0 mi NNW 8.1 mph - N/A   Scattered Clouds
4:53 AM 19.9 °F 11.1 °F 12.9 °F 74% 30.47 in 10.0 mi NW 6.9 mph - N/A   Mostly Cloudy
5:53 AM 19.0 °F 13.9 °F 12.9 °F 77% 30.49 in 10.0 mi North 3.5 mph - N/A   Mostly Cloudy
6:53 AM 18.0 °F 11.1 °F 12.0 °F 78% 30.51 in 10.0 mi NNW 4.6 mph - N/A   Mostly Cloudy
7:53 AM 19.0 °F 13.9 °F 14.0 °F 81% 30.51 in 10.0 mi SW 3.5 mph - N/A   Scattered Clouds
8:53 AM 21.9 °F - 15.1 °F 75% 30.53 in 10.0 mi Calm Calm - N/A   Clear
9:53 AM 27.0 °F - 16.0 °F 63% 30.52 in 10.0 mi Calm Calm - N/A   Partly Cloudy
10:53 AM 30.0 °F 25.2 °F 15.1 °F 54% 30.49 in 10.0 mi North 4.6 mph - N/A   Partly Cloudy
11:53 AM 30.0 °F 24.1 °F 14.0 °F 51% 30.44 in 10.0 mi East 5.8 mph - N/A   Partly Cloudy
12:53 PM 32.0 °F 28.7 °F 14.0 °F 48% 30.41 in 10.0 mi NE 3.5 mph - N/A   Scattered Clouds
1:53 PM 33.1 °F - 15.1 °F 48% 30.40 in 10.0 mi Calm Calm - N/A   Scattered Clouds
2:53 PM 32.0 °F - 15.8 °F 51% 30.36 in 10.0 mi Calm Calm - N/A   Mostly Cloudy
3:53 PM 30.9 °F - 18.0 °F 59% 30.35 in 10.0 mi Calm Calm - N/A   Overcast
4:53 PM 30.0 °F - 19.0 °F 64% 30.34 in 10.0 mi Calm Calm - N/A   Overcast
5:53 PM 30.0 °F - 19.0 °F 64% 30.34 in 10.0 mi Calm Calm - N/A   Overcast
6:53 PM 30.0 °F - 19.0 °F 64% 30.34 in 10.0 mi Calm Calm - N/A   Overcast
7:53 PM 30.0 °F - 17.1 °F 59% 30.35 in 10.0 mi Calm Calm - N/A   Overcast
8:53 PM 30.0 °F 25.2 °F 19.9 °F 66% 30.31 in 8.0 mi ESE 4.6 mph - 0.00 in Rain , Snow Light Freezing Rain
9:04 PM 30.2 °F 25.4 °F 19.4 °F 64% 30.30 in 8.0 mi ESE 4.6 mph - 0.00 in Snow Light Snow
9:53 PM 30.9 °F - 19.9 °F 64% 30.32 in 10.0 mi Calm Calm - 0.00 in   Overcast
10:53 PM 30.9 °F 24.3 °F 21.0 °F 67% 30.29 in 10.0 mi SE 6.9 mph - N/A   Overcast
11:53 PM 30.9 °F 24.3 °F 21.0 °F 67% 30.27 in 10.0 mi SSE 6.9 mph - N/A   Overcast